IU7TPK-1 Weather Reports


time (UTC)temp
C
wind
direction
speed
KPH
gust
KPH
rain 1hr
cm
rain 24hr
cm
rain mn
cm
humidity
%
barometer
mb
20260505102006 23 147 0.0 9.7 0.00 0.00 0.00 47 1015.0
20260505101508 23 146 4.8 9.7 0.00 0.00 0.00 47 1015.0
20260505101006 23 149 4.8 9.7 0.00 0.00 0.00 46 1015.0
20260505100506 22 149 6.4 9.7 0.00 0.00 0.00 48 1015.0
20260505100009 23 156 4.8 8.0 0.00 0.00 0.00 47 1015.0
20260505095506 22 146 6.4 8.0 0.00 0.00 0.00 47 1015.0
20260505094508 23 149 4.8 9.7 0.00 0.00 0.00 46 1015.0
20260505094006 23 150 3.2 9.7 0.00 0.00 0.00 48 1015.0
20260505093506 23 125 4.8 8.0 0.00 0.00 0.00 50 1015.0
20260505093008 23 122 6.4 8.0 0.00 0.00 0.00 49 1015.0
20260505092006 22 125 6.4 8.0 0.00 0.00 0.00 52 1015.0
20260505090506 22 131 4.8 9.7 0.00 0.00 0.00 53 1015.0
20260505090009 22 122 3.2 9.7 0.00 0.00 0.00 51 1015.0
20260505085506 22 121 4.8 9.7 0.00 0.00 0.00 52 1015.0
20260505085006 22 134 6.4 8.0 0.00 0.00 0.00 52 1015.0
20260505084509 22 120 4.8 8.0 0.00 0.00 0.00 54 1015.0
20260505084006 21 112 0.0 8.0 0.00 0.00 0.00 57 1015.0
20260505083506 21 121 3.2 8.0 0.00 0.00 0.00 57 1016.0
20260505083008 21 133 0.0 6.4 0.00 0.00 0.00 58 1016.0
20260505082506 21 148 4.8 8.0 0.00 0.00 0.00 58 1016.0
20260505082005 21 149 0.0 8.0 0.00 0.00 0.00 57 1015.0
20260505081509 21 143 0.0 6.4 0.00 0.00 0.00 59 1015.0
20260505081006 21 141 0.0 6.4 0.00 0.00 0.00 60 1015.0
20260505080506 21 133 4.8 6.4 0.00 0.00 0.00 60 1016.0
20260505080009 20 141 3.2 6.4 0.00 0.00 0.00 61 1016.0
20260505075006 20 139 4.8 6.4 0.00 0.00 0.00 61 1016.0
20260505074509 20 111 0.0 6.4 0.00 0.00 0.00 61 1016.0
20260505074006 20 132 3.2 6.4 0.00 0.00 0.00 60 1016.0
20260505073506 20 154 4.8 6.4 0.00 0.00 0.00 61 1016.0
20260505073008 20 154 4.8 6.4 0.00 0.00 0.00 60 1016.0
20260505072506 20 155 6.4 6.4 0.00 0.00 0.00 60 1016.0
20260505072006 20 160 4.8 6.4 0.00 0.00 0.00 59 1016.0
20260505071508 20 155 4.8 6.4 0.00 0.00 0.00 60 1016.0
20260505070009 20 154 3.2 6.4 0.00 0.00 0.00 59 1015.0
20260505065506 19 141 3.2 6.4 0.00 0.00 0.00 59 1015.0
20260505065006 19 145 0.0 6.4 0.00 0.00 0.00 60 1016.0
20260505064508 19 158 3.2 6.4 0.00 0.00 0.00 60 1016.0
20260505064006 19 149 0.0 4.8 0.00 0.00 0.00 61 1016.0
20260505063506 19 83 0.0 4.8 0.00 0.00 0.00 61 1016.0
20260505063008 18 112 0.0 4.8 0.00 0.00 0.00 62 1016.0
20260505062506 18 135 0.0 6.4 0.00 0.00 0.00 63 1016.0
20260505061509 18 81 0.0 6.4 0.00 0.00 0.00 63 1016.0
20260505061006 18 70 0.0 6.4 0.00 0.00 0.00 63 1016.0
20260505060506 18 59 0.0 4.8 0.00 0.00 0.00 61 1015.0
20260505060009 17 52 0.0 4.8 0.00 0.00 0.00 61 1015.0
20260505055506 17 54 0.0 4.8 0.00 0.00 0.00 61 1015.0
20260505054509 17 61 0.0 4.8 0.00 0.00 0.00 60 1016.0
20260505054006 17 61 0.0 4.8 0.00 0.00 0.00 60 1016.0
20260505053506 17 59 0.0 4.8 0.00 0.00 0.00 61 1015.0
20260505052506 16 46 0.0 4.8 0.00 0.00 0.00 61 1015.0
20260505052005 16 46 0.0 4.8 0.00 0.00 0.00 62 1015.0
20260505051006 15 46 0.0 4.8 0.00 0.00 0.00 62 1015.0
20260505050506 15 46 0.0 4.8 0.00 0.00 0.00 62 1015.0
20260505041509 12 46 0.0 4.8 0.00 0.00 0.00 64 1015.0
20260505041006 12 46 0.0 4.8 0.00 0.00 0.00 63 1015.0
20260505040506 12 46 0.0 4.8 0.00 0.00 0.00 63 1015.0
20260505040008 12 46 0.0 3.2 0.00 0.00 0.00 63 1015.0
20260505035506 13 46 0.0 3.2 0.00 0.00 0.00 63 1015.0
20260505035006 13 46 0.0 3.2 0.00 0.00 0.00 63 1015.0
20260505034509 13 46 0.0 3.2 0.00 0.00 0.00 63 1015.0
20260505034006 13 46 0.0 4.8 0.00 0.00 0.00 63 1015.0
20260505033506 13 46 0.0 4.8 0.00 0.00 0.00 62 1015.0
20260505033008 13 46 0.0 4.8 0.00 0.00 0.00 62 1015.0
20260505032506 13 46 0.0 4.8 0.00 0.00 0.00 62 1015.0
20260505032006 13 46 0.0 3.2 0.00 0.00 0.00 62 1015.0
20260505031508 13 0 0.0 0.0 0.00 0.00 0.00 62 1015.0
20260505031006 13 0 0.0 0.0 0.00 0.00 0.00 62 1015.0
20260505030506 13 46 0.0 3.2 0.00 0.00 0.00 62 1015.0
20260505030008 13 46 0.0 4.8 0.00 0.00 0.00 61 1015.0
20260505025506 13 46 0.0 4.8 0.00 0.00 0.00 61 1015.0
20260505025006 13 46 0.0 3.2 0.00 0.00 0.00 61 1015.0
20260505024508 13 46 0.0 3.2 0.00 0.00 0.00 61 1015.0
20260505024006 13 46 0.0 4.8 0.00 0.00 0.00 61 1015.0
20260505023506 13 47 0.0 4.8 0.00 0.00 0.00 60 1015.0
20260505022506 13 47 4.8 4.8 0.00 0.00 0.00 60 1015.0
20260505022006 13 47 0.0 4.8 0.00 0.00 0.00 60 1015.0
20260505021508 13 48 0.0 3.2 0.00 0.00 0.00 60 1015.0
20260505021006 13 48 0.0 3.2 0.00 0.00 0.00 59 1015.0
20260505020506 13 48 0.0 3.2 0.00 0.00 0.00 59 1015.0
20260505020008 14 47 0.0 3.2 0.00 0.00 0.00 59 1015.0
20260505015506 14 48 0.0 3.2 0.00 0.00 0.00 59 1015.0
20260505014005 14 48 0.0 4.8 0.00 0.00 0.00 59 1015.0
20260505013506 14 48 0.0 4.8 0.00 0.00 0.00 59 1015.0
20260505013009 14 48 3.2 4.8 0.00 0.00 0.00 59 1015.0
20260505012505 14 47 0.0 4.8 0.00 0.00 0.00 58 1015.0
20260505012006 14 47 3.2 4.8 0.00 0.00 0.00 58 1015.0
20260505010505 14 47 3.2 4.8 0.00 0.00 0.00 58 1015.0
20260505010009 15 47 3.2 4.8 0.00 0.00 0.00 58 1015.0
20260505004509 15 48 0.0 4.8 0.00 0.00 0.00 57 1015.0
20260505003506 15 48 3.2 4.8 0.00 0.00 0.00 57 1015.0
20260505002506 15 49 4.8 6.4 0.00 0.00 0.00 57 1015.0
20260505000008 15 50 3.2 4.8 0.00 0.00 0.00 56 1016.0
20260504235506 15 50 3.2 4.8 0.00 0.00 0.00 56 1016.0
20260504235006 15 49 3.2 4.8 0.00 0.00 0.00 56 1016.0
20260504234508 15 50 0.0 3.2 0.00 0.00 0.00 56 1016.0
20260504234006 15 49 0.0 4.8 0.00 0.00 0.00 56 1016.0
20260504233506 15 49 0.0 4.8 0.00 0.00 0.00 56 1016.0
20260504232506 15 47 3.2 4.8 0.00 0.00 0.00 57 1016.0
20260504232006 15 47 3.2 4.8 0.00 0.00 0.00 57 1016.0
20260504231508 15 46 3.2 6.4 0.00 0.00 0.00 57 1016.0
20260504231006 15 44 3.2 6.4 0.00 0.00 0.00 57 1016.0
20260504230506 15 43 4.8 4.8 0.00 0.00 0.00 56 1016.0
20260504230008 15 45 3.2 4.8 0.00 0.00 0.00 56 1016.0
20260504225506 15 47 4.8 4.8 0.00 0.00 0.00 56 1016.0
20260504225006 15 49 3.2 4.8 0.00 0.00 0.00 56 1016.0
20260504224509 15 52 4.8 4.8 0.00 0.00 0.00 56 1016.0
20260504223506 15 335 3.2 4.8 0.00 0.00 0.00 56 1016.0
20260504223009 15 284 0.0 3.2 0.00 0.00 0.00 56 1016.0
20260504222505 15 284 0.0 3.2 0.00 0.00 0.00 55 1016.0
20260504221508 16 284 0.0 4.8 0.00 0.00 0.00 55 1016.0
20260504221006 15 284 0.0 4.8 0.00 0.00 0.00 55 1016.0
20260504220506 16 284 0.0 3.2 0.00 0.00 0.00 55 1016.0
20260504220009 16 284 0.0 3.2 0.00 0.00 0.00 55 1016.0
20260504215006 16 284 0.0 4.8 0.00 0.00 0.00 54 1016.0
20260504214509 16 285 0.0 4.8 0.00 0.00 0.00 54 1016.0
20260504214005 16 284 0.0 3.2 0.00 0.00 0.00 54 1016.0
20260504213506 16 284 0.0 3.2 0.00 0.00 0.00 54 1016.0
20260504213009 16 284 0.0 3.2 0.00 0.00 0.00 54 1016.0
20260504212505 16 284 0.0 3.2 0.00 0.00 0.00 54 1016.0
20260504212006 16 0 0.0 0.0 0.00 0.00 0.00 54 1016.0
20260504211508 17 0 0.0 0.0 0.00 0.00 0.00 53 1016.0
20260504210506 17 0 0.0 0.0 0.00 0.00 0.00 53 1016.0
20260504210008 17 0 0.0 0.0 0.00 0.00 0.00 53 1016.0
20260504205506 17 0 0.0 0.0 0.00 0.00 0.00 53 1016.0
20260504205006 17 0 0.0 0.0 0.00 0.00 0.00 54 1016.0
20260504204508 17 0 0.0 0.0 0.00 0.00 0.00 54 1016.0
20260504204006 17 284 0.0 4.8 0.00 0.00 0.00 53 1016.0
20260504203009 17 284 0.0 3.2 0.00 0.00 0.00 54 1017.0
20260504202506 17 284 0.0 3.2 0.00 0.00 0.00 54 1017.0
20260504202006 17 0 0.0 0.0 0.00 0.00 0.00 55 1016.0
20260504201006 17 285 0.0 3.2 0.00 0.00 0.00 54 1016.0
20260504194508 18 0 0.0 0.0 0.00 0.00 0.00 53 1016.0
20260504194006 18 0 0.0 0.0 0.00 0.00 0.00 53 1016.0
20260504193507 18 297 0.0 3.2 0.00 0.00 0.00 52 1016.0
20260504193010 18 291 0.0 4.8 0.00 0.00 0.00 52 1016.0
20260504192506 18 286 0.0 4.8 0.00 0.00 0.00 52 1016.0
20260504192007 18 0 0.0 0.0 0.00 0.00 0.00 52 1016.0
20260504191006 18 0 0.0 0.0 0.00 0.00 0.00 51 1016.0
20260504190008 18 191 0.0 3.2 0.00 0.00 0.00 51 1016.0
20260504185506 19 191 0.0 3.2 0.00 0.00 0.00 51 1016.0
20260504185006 19 191 0.0 3.2 0.00 0.00 0.00 50 1016.0
20260504184508 19 203 0.0 3.2 0.00 0.00 0.00 50 1016.0
20260504184006 19 203 0.0 3.2 0.00 0.00 0.00 50 1016.0
20260504183506 19 203 0.0 3.2 0.00 0.00 0.00 50 1016.0
20260504183008 19 192 0.0 4.8 0.00 0.00 0.00 50 1016.0
20260504182506 20 190 3.2 4.8 0.00 0.00 0.00 49 1016.0
20260504182006 20 200 0.0 3.2 0.00 0.00 0.00 47 1016.0
20260504181508 20 200 0.0 3.2 0.00 0.00 0.00 47 1016.0
20260504181006 20 200 0.0 3.2 0.00 0.00 0.00 47 1016.0
20260504180505 20 0 0.0 0.0 0.00 0.00 0.00 47 1016.0
20260504175506 20 0 0.0 0.0 0.00 0.00 0.00 47 1016.0
20260504175006 20 200 0.0 3.2 0.00 0.00 0.00 47 1016.0
20260504174509 20 200 0.0 3.2 0.00 0.00 0.00 47 1016.0
20260504174006 20 200 0.0 3.2 0.00 0.00 0.00 47 1016.0
20260504173505 20 200 0.0 3.2 0.00 0.00 0.00 47 1015.0
20260504173009 21 198 0.0 4.8 0.00 0.00 0.00 47 1015.0
20260504172506 21 188 0.0 4.8 0.00 0.00 0.00 46 1015.0
20260504172006 21 171 0.0 3.2 0.00 0.00 0.00 47 1015.0
20260504171005 21 176 0.0 4.8 0.00 0.00 0.00 44 1015.0
20260504170506 21 181 0.0 4.8 0.00 0.00 0.00 43 1015.0
20260504151005 25 191 4.8 6.4 0.00 0.00 0.00 37 1015.0
20260504141005 26 177 3.2 8.0 0.00 0.00 0.00 37 1015.0
20260504140506 26 181 3.2 9.7 0.00 0.00 0.00 37 1015.0
20260504130505 26 185 0.0 6.4 0.00 0.00 0.00 38 1016.0